Location: Pel�-Koumbol�
(14.9505°N, 3.0798°W)
Time: 06:16:53
(UTC+00:00)

USA 229 DEB - Pass Details

Date: 17 February 2020
Orbit: 988 x 1224 km, 63.4° (Epoch: 26 March)

Event Time Altitude Azimuth Distance (km) Brightness Sun altitude
Exits shadow 05:23:23 - 335° (NNW) 3,996 6.4 -18.1°
Reaches altitude 10° 05:25:53 10° 336° (NNW) 3,121 5.8 -17.5°
Maximum altitude 05:33:28 89° 66° (ENE) 1,221 4.0 -15.7°
Drops below altitude 10° 05:41:11 10° 156° (SSE) 3,169 6.6 -13.9°
Sets 05:43:56 0° 156° (SSE) 4,126 7.3 -13.2°
